Regional Weather Roundup
Issued by NWS

Home | Current Version | Previous Version | Graphics & Text | Print | Product List | Glossary On
Versions: 1 2 3 4 5 6 7 8 9 10 11 12 13 14 15 16 17 18 19 20 21 22 23 24 25 26 27 28 29 30 31 32 33 34 35 36 37 38 39 40 41 42 43 44 45 46 47 48 49 50
000
ASUS43 KDTX 241910
RWRMI
MICHIGAN HOURLY REGIONAL WEATHER ROUNDUP
NATIONAL WEATHER SERVICE DETROIT/PONTIAC MI
300 PM EDT WED AUG 24 2016

NOTE: "FAIR" INDICATES FEW OR NO CLOUDS BELOW 12,000 FEET WITH NO
SIGNIFICANT WEATHER AND/OR OBSTRUCTION TO VISIBILITY.

MIZ047>049-052>055-059>063-066>070-074>076-081>083-242000-
SOUTHEAST LOWER MICHIGAN

CITY           SKY/WX    TMP DP  RH WIND       PRES   REMARKS
ADRIAN         CLOUDY    82  73  74 S14       30.02F
ALMA           CLOUDY    77  73  88 S12       29.98F
ANN ARBOR      CLOUDY    81  72  74 SE12G20   30.01F
BAD AXE        CLOUDY    79  66  65 S16G23    29.99F
CARO           CLOUDY    77  70  79 S13       29.99F
DETROIT CITY   PTSUNNY   82  69  64 S20       30.03F
DETROIT        CLOUDY    82  70  66 S13G22    30.03F
FLINT          CLOUDY    83  71  67 S14       30.00F
GROSSE ILE     CLOUDY    80  71  73 S13       30.03F
HILLSDALE      CLOUDY    78  71  77 S8G17     30.02F
HOWELL         PTSUNNY   80  72  78 S10       30.01F

CITY           SKY/WX    TMP DP  RH WIND       PRES   REMARKS
JACKSON        PTSUNNY   80  73  79 S15       29.99F
LAMBERTVILLE   PTSUNNY   83  71  65 S10G18    30.03F
LANSING        CLOUDY    80  70  71 S14       29.99F
LAPEER         PTSUNNY   77  70  78 S9        30.02F
MASON          CLOUDY    78  70  76 S3G16     29.99F
MONROE         CLOUDY    82  72  71 S15G22    30.03F
MT. CLEMENS    CLOUDY    80  69  69 S16       30.02F
PONTIAC        CLOUDY    78  71  79 S8        30.01F
PORT HURON     CLOUDY    81  68  65 S14G22    30.04F
TRI CITIES     CLOUDY    78  72  81 S10       29.98F
MIDLAND        CLOUDY    75  71  86 SW5       29.96F
TROY           CLOUDY    84  65  54 S10G16    30.04F
SAGINAW HB     CLOUDY    79  70  73 S14G21    29.97F
$$
MIZ043>046-050>051-056>058-064>065-071>073-077>080-242000-
SOUTHWEST LOWER MICHIGAN

CITY           SKY/WX    TMP DP  RH WIND       PRES   REMARKS
BATTLE CREEK   PTSUNNY   77  72  84 S15       29.97F
BENTON HARBOR  MOSUNNY   79  71  76 S17G24    29.92F
BIG RAPIDS     CLOUDY    81  69  67 SW9G21    29.94S
COLDWATER      CLOUDY    78  72  80 S9G16     29.98F
FREMONT        CLOUDY    79  69  71 SW10      29.94S
HOLLAND        CLOUDY    79  72  79 SW12      29.96F
GRAND RAPIDS   PTSUNNY   80  69  69 S13       29.95F
IONIA          FAIR      79  68  69 S9        29.96F
KALAMAZOO      CLOUDY    78  70  76 S17G25    29.96F
LUDINGTON      CLOUDY    78  71  80 SW21G29   29.91S
MARSHALL       CLOUDY    79  72  78 SW14      29.99F
MOUNT PLEASANT CLOUDY    76  70  81 S8        29.96F
MUSKEGON       CLOUDY    77  72  84 SW13G23   29.95F
SOUTH HAVEN    CLOUDY    79  73  82 S6        29.94S
$$
MIZ016>042-242000-
NORTHERN LOWER MICHIGAN

CITY           SKY/WX    TMP DP  RH WIND       PRES   REMARKS
ALPENA         CLOUDY    75  67  76 S15       29.93R
BEAVER ISLAND  LGT RAIN  71  69  92 SW15G23   29.86R
BELLAIRE       CLOUDY    76  69  79 SW8G17    29.90S
CADILLAC       CLOUDY    79  66  64 SW18G24   29.93F
CHARLEVOIX     PTSUNNY   75  70  85 SW10G16   29.91R
FRANKFORT      CLOUDY    74  70  85 S13G21    29.90R
GAYLORD        CLOUDY    75  66  73 SW10G21   29.93R
GRAYLING       CLOUDY    77  69  77 S10G18    29.94S
HARBOR SPRINGS CLOUDY    73  69  87 SW12      29.88S
HOUGHTON LAKE  CLOUDY    77  67  71 S13G20    29.95F
MANISTEE       CLOUDY    77  69  76 SW15G23   29.90F
OSCODA         CLOUDY    76  68  75 S18G31    29.94F
PELLSTON       CLOUDY    75  67  76 SW10G24   29.88R
ROGERS CITY    CLOUDY    73  68  83 S12G18    29.90F
TRAVERSE CITY  CLOUDY    78  70  76 SW7       29.87F
$$
MIZ007>008-015-242000-
EASTERN UPPER MICHIGAN

CITY           SKY/WX    TMP DP  RH WIND       PRES   REMARKS
KINROSS        CLOUDY    66  65  96 S8        29.85F
MACKINAC ISLAN CLOUDY    71  71 100 SW10G16   29.86S
NEWBERRY       CLOUDY    68  67  97 S9        29.83S FOG
S. S. MARIE    CLOUDY    67  66  97 SE7       29.85F
$$
MIZ004>006-011>014-085-242000-
CENTRAL UPPER MICHIGAN

CITY           SKY/WX    TMP DP  RH WIND       PRES   REMARKS
MANISTIQUE     CLOUDY    69  67  92 S9        29.83S FOG
ESCANABA       CLOUDY    76  69  79 SW16      29.81S
MENOMINEE      CLOUDY   N/A N/A N/A VRB5      29.86R
SAWYER-GWINN   CLOUDY    70  66  88 SW12      29.82F
$$
MIZ001>003-009>011-084-242000-
WESTERN UPPER MICHIGAN

CITY           SKY/WX    TMP DP  RH WIND       PRES   REMARKS
IRON MOUNTAIN  CLOUDY    76  66  71 W12       29.82S
HOUGHTON       CLOUDY    73  65  75 W10       29.79S
COPPER HARBOR    N/A     70  65  84 N8        29.78S
IRONWOOD       CLOUDY    75  66  73 W10       29.83S
$$

ABBREVIATIONS USED IN REMARKS
   TC - TEMPERATURE IN CELSIUS
  WCI - WIND CHILL INDEX
   HX - HEAT INDEX
  VSB - VISIBILITY




USA.gov is the U.S. government's official web portal to all federal, state and local government web resources and services.